MOVE-IIB

Last updated on Sun Dec 03 2023 00:03:36 GMT+0000 (Coordinated Universal Time)

1 44398U 19038N 23336.52197869 .04281763 25709-5 26473-2 0 9996 2 44398 97.6525 331.9488 0005308 103.0849 18.6504 16.17987923244862
UTC large
Height (km)
Speed (km/s)
/
Latitude / Longitude
Inclination (degrees)
Orbital Period (minutes)
Azimuth
Elevation
Range (km)
Doppler Factor

Next 0 passes for location: London (51.5072 / 0.1276)

Sorry there are no passes over London.